G6LTT Weather Reports


time (UTC)temp
C
wind
direction
speed
KPH
gust
KPH
rain 1hr
cm
rain 24hr
cm
rain mn
cm
humidity
%
barometer
mb
20260507224504 10 0 0.0 0.0 0.00 0.00 0.00 81 1045.4
20260507223603 10 0 0.0 0.0 0.00 0.00 0.00 81 1045.1
20260507222703 10 0 0.0 0.0 0.00 0.00 0.00 80 1045.2
20260507221803 11 52 0.0 3.2 0.00 0.00 0.00 78 1045.4
20260507220903 11 0 0.0 0.0 0.00 0.00 0.00 76 1045.3
20260507220003 11 0 0.0 0.0 0.00 0.00 0.00 74 1045.3
20260507215403 11 0 0.0 0.0 0.00 0.00 0.00 73 1045.4
20260507214717 11 198 0.0 3.2 0.00 0.00 0.00 72 1045.3
20260507213608 11 179 0.0 3.2 0.00 0.00 0.00 71 1045.2
20260507212703 11 247 0.0 3.2 0.00 0.00 0.00 71 1045.3
20260507211803 11 187 0.0 3.2 0.00 0.00 0.00 71 1045.3
20260507210903 11 182 1.6 6.4 0.00 0.00 0.00 70 1045.1
20260507210003 11 167 1.6 3.2 0.00 0.00 0.00 70 1045.0
20260507205403 11 157 0.0 3.2 0.00 0.00 0.00 71 1045.2
20260507204503 11 184 0.0 6.4 0.00 0.00 0.00 71 1045.2
20260507203603 11 220 0.0 3.2 0.00 0.00 0.00 71 1045.0
20260507202703 11 168 1.6 3.2 0.00 0.00 0.00 71 1045.0
20260507201803 11 171 0.0 3.2 0.00 0.00 0.00 72 1044.7
20260507200903 11 174 0.0 3.2 0.00 0.00 0.00 74 1044.7
20260507200220 11 160 1.6 3.2 0.00 0.00 0.00 74 1044.6
20260507195403 11 175 1.6 6.4 0.00 0.00 0.00 74 1044.5
20260507194504 11 210 0.0 6.4 0.00 0.00 0.00 74 1044.6
20260507192708 12 176 0.0 3.2 0.00 0.00 0.00 72 1044.3
20260507192015 12 180 0.0 3.2 0.00 0.00 0.00 72 1044.1
20260507191113 12 159 0.0 3.2 0.00 0.00 0.00 71 1044.2
20260507190004 12 85 0.0 3.2 0.00 0.00 0.00 71 1044.2
20260507185405 12 184 1.6 6.4 0.00 0.00 0.00 70 1044.2
20260507184503 12 140 1.6 6.4 0.00 0.00 0.00 69 1043.9
20260507183816 12 229 0.0 6.4 0.00 0.00 0.00 68 1044.1
20260507182705 12 172 3.2 6.4 0.00 0.00 0.00 66 1044.2
20260507181803 12 159 0.0 6.4 0.00 0.00 0.00 66 1043.9
20260507180908 12 188 1.6 9.7 0.00 0.00 0.00 65 1043.8
20260507180004 13 187 0.0 6.4 0.00 0.00 0.00 64 1043.9
20260507175612 13 185 3.2 6.4 0.00 0.00 0.00 64 1043.7
20260507174503 12 130 1.6 9.7 0.00 0.00 0.00 64 1043.7
20260507173603 13 87 3.2 6.4 0.00 0.00 0.00 64 1044.2
20260507172703 13 127 0.0 12.9 0.00 0.00 0.00 63 1044.1
20260507171803 13 189 1.6 9.7 0.00 0.00 0.00 62 1043.8
20260507170903 14 159 1.6 9.7 0.00 0.00 0.00 59 1043.6
20260507170003 14 147 1.6 9.7 0.00 0.00 0.00 58 1043.6
20260507165403 14 168 1.6 11.3 0.00 0.00 0.00 59 1043.6
20260507164503 14 237 1.6 9.7 0.00 0.00 0.00 58 1043.6
20260507163603 13 182 3.2 11.3 0.00 0.00 0.00 59 1043.7
20260507162703 14 73 0.0 6.4 0.00 0.00 0.00 57 1043.9
20260507161803 15 157 1.6 9.7 0.00 0.00 0.00 56 1043.8
20260507160903 15 183 3.2 6.4 0.00 0.00 0.00 55 1043.8
20260507160003 13 183 1.6 9.7 0.00 0.00 0.00 58 1043.7
20260507155403 13 176 3.2 6.4 0.00 0.00 0.00 58 1043.8
20260507154503 14 161 1.6 6.4 0.00 0.00 0.00 56 1043.8
20260507153603 14 172 3.2 11.3 0.00 0.00 0.00 55 1043.5
20260507152703 13 215 0.0 6.4 0.00 0.00 0.00 54 1043.9
20260507151803 14 169 0.0 3.2 0.00 0.00 0.00 54 1043.8
20260507150903 14 188 0.0 9.7 0.00 0.00 0.00 55 1043.8
20260507150003 14 211 0.0 6.4 0.00 0.00 0.00 53 1043.8
20260507145614 14 180 0.0 6.4 0.00 0.00 0.00 53 1043.7
20260507144503 14 220 0.0 6.4 0.00 0.00 0.00 55 1043.9
20260507143603 14 180 1.6 14.5 0.00 0.00 0.00 55 1044.1
20260507142703 14 179 6.4 14.5 0.00 0.00 0.00 55 1043.8
20260507141803 14 217 1.6 6.4 0.00 0.00 0.00 55 1044.3
20260507140903 14 164 1.6 6.4 0.00 0.00 0.00 52 1044.2
20260507140003 14 162 0.0 9.7 0.00 0.00 0.00 54 1044.3
20260507135615 14 121 3.2 9.7 0.00 0.00 0.00 54 1044.3
20260507134503 13 206 1.6 6.4 0.00 0.00 0.00 54 1044.2
20260507133603 14 142 3.2 6.4 0.00 0.00 0.00 54 1044.3
20260507132703 14 191 0.0 6.4 0.00 0.00 0.00 54 1044.4
20260507131803 14 139 0.0 6.4 0.00 0.00 0.00 52 1044.4
20260507130903 13 205 1.6 9.7 0.00 0.00 0.00 55 1044.6
20260507130003 13 222 1.6 6.4 0.00 0.00 0.00 56 1044.2
20260507125615 13 220 3.2 6.4 0.00 0.00 0.00 54 1044.5
20260507124503 13 24 1.6 6.4 0.00 0.00 0.00 54 1044.6
20260507123603 13 52 0.0 6.4 0.00 0.00 0.00 54 1044.6
20260507122705 12 47 1.6 6.4 0.00 0.00 0.00 58 1044.7
20260507121803 13 15 3.2 6.4 0.00 0.00 0.00 58 1044.6
20260507120903 12 12 1.6 3.2 0.00 0.00 0.00 59 1044.4
20260507120003 12 335 1.6 6.4 0.00 0.00 0.00 59 1044.7
20260507115403 12 1 1.6 6.4 0.00 0.00 0.00 60 1044.7
20260507114503 12 53 0.0 3.2 0.00 0.00 0.00 58 1044.6
20260507113603 12 186 0.0 6.4 0.00 0.00 0.00 56 1044.5
20260507112913 12 203 0.0 6.4 0.00 0.00 0.00 57 1044.9
20260507111803 12 150 0.0 3.2 0.00 0.00 0.00 59 1044.9
20260507110903 13 268 0.0 6.4 0.00 0.00 0.00 57 1044.5
20260507110003 13 262 3.2 9.7 0.00 0.00 0.00 56 1044.6
20260507105617 13 282 1.6 9.7 0.00 0.00 0.00 55 1044.7
20260507104503 13 124 1.6 9.7 0.00 0.00 0.00 57 1044.6
20260507103603 14 181 0.0 14.5 0.00 0.00 0.00 57 1044.7
20260507102703 13 182 3.2 14.5 0.00 0.00 0.00 56 1044.8
20260507102016 14 192 1.6 11.3 0.00 0.00 0.00 54 1044.9
20260507100903 14 163 3.2 9.7 0.00 0.00 0.00 53 1044.6
20260507100003 14 183 1.6 9.7 0.00 0.00 0.00 55 1044.8
20260507095403 14 184 4.8 9.7 0.00 0.00 0.00 54 1044.8
20260507094715 13 206 1.6 9.7 0.00 0.00 0.00 56 1044.8
20260507093603 13 184 3.2 6.4 0.00 0.00 0.00 60 1044.8
20260507092703 13 204 0.0 9.7 0.00 0.00 0.00 59 1044.8
20260507091803 12 207 3.2 11.3 0.00 0.00 0.00 61 1044.9
20260507090903 13 210 3.2 9.7 0.00 0.00 0.00 62 1044.9
20260507090004 12 204 1.6 9.7 0.00 0.00 0.00 64 1044.8
20260507085403 12 195 3.2 9.7 0.00 0.00 0.00 63 1044.8
20260507084503 12 188 0.0 6.4 0.00 0.00 0.00 66 1044.8
20260507083603 10 114 0.0 6.4 0.00 0.00 0.00 72 1044.9
20260507082703 10 115 0.0 3.2 0.00 0.00 0.00 73 1044.9
20260507081803 11 95 0.0 3.2 0.00 0.00 0.00 72 1044.8
20260507080903 12 169 0.0 3.2 0.00 0.00 0.00 67 1044.8
20260507080003 11 158 0.0 6.4 0.00 0.00 0.00 70 1044.8
20260507075403 11 231 1.6 11.3 0.00 0.00 0.00 71 1045.0
20260507074503 11 166 1.6 6.4 0.00 0.00 0.00 71 1044.7
20260507073603 11 47 1.6 6.4 0.00 0.00 0.00 71 1044.9
20260507072703 11 147 3.2 6.4 0.00 0.00 0.00 74 1044.8
20260507071803 10 88 0.0 11.3 0.00 0.00 0.00 74 1044.7
20260507070903 11 145 0.0 3.2 0.00 0.00 0.00 73 1044.8
20260507070005 10 54 0.0 3.2 0.00 0.00 0.00 75 1044.7
20260507065614 10 69 0.0 3.2 0.00 0.00 0.00 76 1044.6
20260507064503 8 137 0.0 6.4 0.00 0.00 0.00 80 1044.7
20260507063603 8 39 0.0 3.2 0.00 0.00 0.00 82 1044.6
20260507062703 8 33 0.0 3.2 0.00 0.00 0.00 84 1044.6
20260507061803 8 52 0.0 3.2 0.00 0.00 0.00 86 1044.5
20260507061116 7 48 1.6 3.2 0.00 0.00 0.00 87 1044.5
20260507060003 7 41 0.0 3.2 0.00 0.00 0.00 88 1044.4
20260507055615 7 33 0.0 3.2 0.00 0.00 0.00 89 1044.5
20260507054503 7 52 0.0 3.2 0.00 0.00 0.00 89 1044.5
20260507053603 7 62 0.0 3.2 0.00 0.00 0.00 89 1044.3
20260507052703 7 55 0.0 6.4 0.00 0.00 0.00 89 1044.2
20260507051803 7 48 0.0 3.2 0.00 0.00 0.00 90 1044.2
20260507050903 7 65 3.2 3.2 0.00 0.00 0.00 90 1043.9
20260507050003 7 67 0.0 3.2 0.00 0.00 0.00 91 1043.9
20260507045403 7 0 0.0 0.0 0.00 0.00 0.00 91 1043.8
20260507044503 7 67 0.0 3.2 0.00 0.00 0.00 92 1043.8
20260507043603 7 67 0.0 3.2 0.00 0.00 0.00 92 1043.6
20260507042703 6 67 0.0 3.2 0.00 0.00 0.00 92 1043.8
20260507041803 6 0 0.0 0.0 0.00 0.00 0.00 92 1043.8
20260507040903 6 63 0.0 3.2 0.00 0.00 0.00 92 1043.8
20260507040214 6 55 0.0 3.2 0.00 0.00 0.00 92 1043.9
20260507035616 6 45 0.0 3.2 0.00 0.00 0.00 92 1043.7
20260507034503 6 45 0.0 3.2 0.00 0.00 0.00 91 1044.1
20260507033816 6 0 0.0 0.0 0.00 0.00 0.00 91 1043.5
20260507032703 7 0 0.0 0.0 0.00 0.00 0.00 91 1043.7
20260507031803 7 0 0.0 0.0 0.00 0.00 0.00 91 1043.8
20260507030903 6 0 0.0 0.0 0.00 0.00 0.00 91 1043.7
20260507030215 7 0 0.0 0.0 0.00 0.00 0.00 91 1043.8
20260507025403 7 0 0.0 0.0 0.00 0.00 0.00 91 1044.1
20260507024503 6 58 0.0 3.2 0.00 0.00 0.00 91 1043.7
20260507023603 6 0 0.0 0.0 0.00 0.00 0.00 91 1043.7
20260507022703 6 67 0.0 3.2 0.00 0.00 0.00 91 1043.7
20260507021803 6 0 0.0 0.0 0.00 0.00 0.00 90 1043.7
20260507021113 7 0 0.0 0.0 0.00 0.00 0.00 90 1043.4
20260507020003 7 0 0.0 0.0 0.00 0.00 0.00 89 1043.7
20260507015403 7 0 0.0 0.0 0.00 0.00 0.00 89 1043.5
20260507014503 7 56 0.0 6.4 0.00 0.00 0.00 88 1043.6
20260507013603 7 32 1.6 6.4 0.00 0.00 0.00 87 1043.5
20260507012703 8 49 0.0 3.2 0.00 0.00 0.00 87 1043.5
20260507011803 8 38 1.6 3.2 0.00 0.00 0.00 87 1043.7
20260507010903 7 42 0.0 6.4 0.00 0.00 0.00 87 1043.6
20260507010003 7 36 0.0 6.4 0.00 0.00 0.00 87 1043.7
20260507005403 7 16 0.0 3.2 0.00 0.00 0.00 87 1043.4
20260507004503 7 4 0.0 6.4 0.00 0.00 0.00 87 1043.7
20260507003812 7 20 1.6 6.4 0.00 0.00 0.00 87 1043.5
20260507002703 7 344 0.0 3.2 0.00 0.00 0.00 87 1043.7
20260507001803 7 33 0.0 3.2 0.00 0.00 0.00 87 1043.5
20260507000903 7 67 0.0 3.2 0.00 0.00 0.00 88 1043.8
20260507000003 7 67 0.0 3.2 0.00 0.00 0.00 88 1043.7
20260506235403 7 67 0.0 3.2 0.00 0.00 0.00 87 1043.5
20260506234503 7 65 0.0 3.2 0.00 0.00 0.00 86 1043.6
20260506233603 7 56 1.6 6.4 0.00 0.00 0.00 86 1043.6
20260506232703 8 44 1.6 3.2 0.00 0.00 0.00 85 1043.2
20260506231803 8 22 0.0 3.2 0.00 0.00 0.00 85 1043.6
20260506231115 8 29 1.6 3.2 0.00 0.00 0.00 85 1043.4
20260506230213 8 348 0.0 3.2 0.00 0.00 0.00 84 1043.4
20260506225403 8 22 0.0 3.2 0.00 0.00 0.00 84 1043.4